<?xml version="1.0"?>
<gpx xmlns="http://www.topografix.com/GPX/1/1" xmlns:xsi="http://www.w3.org/2001/XMLSchema-instance" version="1.1" creator="GPX RubyGem 1.0.0 -- http://dougfales.github.io/gpx/" xsi:schemaLocation="http://www.topografix.com/GPX/1/1 http://www.topografix.com/GPX/1/1/gpx.xsd">
  <metadata>
    <name/>
    <time>2026-05-08T00:52:35+00:00</time>
    <bound minlat="90.0" minlon="180.0" maxlat="-90.0" maxlon="-180.0"/>
  </metadata>
  <trk>
    <name/>
    <trkseg>
      <trkpt lat="45.916804" lon="9.033275">
        <time>1970-01-01T00:00:00+00:00</time>
        <ele>941.0</ele>
      </trkpt>
      <trkpt lat="45.916798" lon="9.033234">
        <time>1970-01-01T00:00:00+00:00</time>
        <ele>941.0</ele>
      </trkpt>
      <trkpt lat="45.916749" lon="9.033058">
        <time>1970-01-01T00:00:00+00:00</time>
        <ele>945.0</ele>
      </trkpt>
      <trkpt lat="45.916479" lon="9.032908">
        <time>1970-01-01T00:00:00+00:00</time>
        <ele>944.0</ele>
      </trkpt>
      <trkpt lat="45.916216" lon="9.032811">
        <time>1970-01-01T00:00:00+00:00</time>
        <ele>943.0</ele>
      </trkpt>
      <trkpt lat="45.915902" lon="9.032756">
        <time>1970-01-01T00:00:00+00:00</time>
        <ele>952.0</ele>
      </trkpt>
      <trkpt lat="45.915661" lon="9.032778">
        <time>1970-01-01T00:00:00+00:00</time>
        <ele>957.0</ele>
      </trkpt>
      <trkpt lat="45.91512" lon="9.032945">
        <time>1970-01-01T00:00:00+00:00</time>
        <ele>956.0</ele>
      </trkpt>
      <trkpt lat="45.915063" lon="9.03296">
        <time>1970-01-01T00:00:00+00:00</time>
        <ele>954.0</ele>
      </trkpt>
      <trkpt lat="45.914991" lon="9.032963">
        <time>1970-01-01T00:00:00+00:00</time>
        <ele>953.0</ele>
      </trkpt>
      <trkpt lat="45.914911" lon="9.032919">
        <time>1970-01-01T00:00:00+00:00</time>
        <ele>955.0</ele>
      </trkpt>
      <trkpt lat="45.914859" lon="9.032823">
        <time>1970-01-01T00:00:00+00:00</time>
        <ele>959.0</ele>
      </trkpt>
      <trkpt lat="45.914777" lon="9.032683">
        <time>1970-01-01T00:00:00+00:00</time>
        <ele>964.0</ele>
      </trkpt>
      <trkpt lat="45.914686" lon="9.032602">
        <time>1970-01-01T00:00:00+00:00</time>
        <ele>963.0</ele>
      </trkpt>
      <trkpt lat="45.914756" lon="9.032481">
        <time>1970-01-01T00:00:00+00:00</time>
        <ele>968.0</ele>
      </trkpt>
      <trkpt lat="45.914694" lon="9.032387">
        <time>1970-01-01T00:00:00+00:00</time>
        <ele>969.0</ele>
      </trkpt>
      <trkpt lat="45.91465" lon="9.032243">
        <time>1970-01-01T00:00:00+00:00</time>
        <ele>973.0</ele>
      </trkpt>
      <trkpt lat="45.91471" lon="9.031917">
        <time>1970-01-01T00:00:00+00:00</time>
        <ele>986.0</ele>
      </trkpt>
      <trkpt lat="45.914712" lon="9.031834">
        <time>1970-01-01T00:00:00+00:00</time>
        <ele>989.0</ele>
      </trkpt>
      <trkpt lat="45.914645" lon="9.031596">
        <time>1970-01-01T00:00:00+00:00</time>
        <ele>997.0</ele>
      </trkpt>
      <trkpt lat="45.914681" lon="9.0315">
        <time>1970-01-01T00:00:00+00:00</time>
        <ele>1002.0</ele>
      </trkpt>
      <trkpt lat="45.914728" lon="9.031434">
        <time>1970-01-01T00:00:00+00:00</time>
        <ele>1005.0</ele>
      </trkpt>
      <trkpt lat="45.914873" lon="9.031414">
        <time>1970-01-01T00:00:00+00:00</time>
        <ele>1009.0</ele>
      </trkpt>
      <trkpt lat="45.915155" lon="9.03146">
        <time>1970-01-01T00:00:00+00:00</time>
        <ele>1014.0</ele>
      </trkpt>
      <trkpt lat="45.915234" lon="9.031455">
        <time>1970-01-01T00:00:00+00:00</time>
        <ele>1018.0</ele>
      </trkpt>
      <trkpt lat="45.91542" lon="9.031343">
        <time>1970-01-01T00:00:00+00:00</time>
        <ele>1031.0</ele>
      </trkpt>
      <trkpt lat="45.916167" lon="9.031171">
        <time>1970-01-01T00:00:00+00:00</time>
        <ele>1032.0</ele>
      </trkpt>
      <trkpt lat="45.916272" lon="9.031184">
        <time>1970-01-01T00:00:00+00:00</time>
        <ele>1031.0</ele>
      </trkpt>
      <trkpt lat="45.916426" lon="9.031078">
        <time>1970-01-01T00:00:00+00:00</time>
        <ele>1037.0</ele>
      </trkpt>
      <trkpt lat="45.916639" lon="9.031012">
        <time>1970-01-01T00:00:00+00:00</time>
        <ele>1043.0</ele>
      </trkpt>
      <trkpt lat="45.916777" lon="9.030939">
        <time>1970-01-01T00:00:00+00:00</time>
        <ele>1046.0</ele>
      </trkpt>
      <trkpt lat="45.916864" lon="9.030851">
        <time>1970-01-01T00:00:00+00:00</time>
        <ele>1051.0</ele>
      </trkpt>
      <trkpt lat="45.917045" lon="9.030769">
        <time>1970-01-01T00:00:00+00:00</time>
        <ele>1058.0</ele>
      </trkpt>
      <trkpt lat="45.917126" lon="9.030698">
        <time>1970-01-01T00:00:00+00:00</time>
        <ele>1063.0</ele>
      </trkpt>
      <trkpt lat="45.917476" lon="9.030519">
        <time>1970-01-01T00:00:00+00:00</time>
        <ele>1078.0</ele>
      </trkpt>
      <trkpt lat="45.917717" lon="9.030457">
        <time>1970-01-01T00:00:00+00:00</time>
        <ele>1087.0</ele>
      </trkpt>
      <trkpt lat="45.917763" lon="9.030427">
        <time>1970-01-01T00:00:00+00:00</time>
        <ele>1089.0</ele>
      </trkpt>
      <trkpt lat="45.917865" lon="9.030445">
        <time>1970-01-01T00:00:00+00:00</time>
        <ele>1092.0</ele>
      </trkpt>
      <trkpt lat="45.917944" lon="9.030385">
        <time>1970-01-01T00:00:00+00:00</time>
        <ele>1097.0</ele>
      </trkpt>
      <trkpt lat="45.918175" lon="9.030464">
        <time>1970-01-01T00:00:00+00:00</time>
        <ele>1107.0</ele>
      </trkpt>
      <trkpt lat="45.918334" lon="9.030459">
        <time>1970-01-01T00:00:00+00:00</time>
        <ele>1117.0</ele>
      </trkpt>
      <trkpt lat="45.918573" lon="9.030477">
        <time>1970-01-01T00:00:00+00:00</time>
        <ele>1132.0</ele>
      </trkpt>
      <trkpt lat="45.918752" lon="9.030404">
        <time>1970-01-01T00:00:00+00:00</time>
        <ele>1142.0</ele>
      </trkpt>
      <trkpt lat="45.918919" lon="9.030425">
        <time>1970-01-01T00:00:00+00:00</time>
        <ele>1145.0</ele>
      </trkpt>
      <trkpt lat="45.919188" lon="9.030169">
        <time>1970-01-01T00:00:00+00:00</time>
        <ele>1156.0</ele>
      </trkpt>
      <trkpt lat="45.919504" lon="9.029999">
        <time>1970-01-01T00:00:00+00:00</time>
        <ele>1170.0</ele>
      </trkpt>
      <trkpt lat="45.919743" lon="9.03006">
        <time>1970-01-01T00:00:00+00:00</time>
        <ele>1181.0</ele>
      </trkpt>
      <trkpt lat="45.919823" lon="9.030127">
        <time>1970-01-01T00:00:00+00:00</time>
        <ele>1181.0</ele>
      </trkpt>
      <trkpt lat="45.920236" lon="9.03002">
        <time>1970-01-01T00:00:00+00:00</time>
        <ele>1200.0</ele>
      </trkpt>
      <trkpt lat="45.920311" lon="9.029952">
        <time>1970-01-01T00:00:00+00:00</time>
        <ele>1206.0</ele>
      </trkpt>
      <trkpt lat="45.920543" lon="9.02994">
        <time>1970-01-01T00:00:00+00:00</time>
        <ele>1208.0</ele>
      </trkpt>
      <trkpt lat="45.921188" lon="9.02958">
        <time>1970-01-01T00:00:00+00:00</time>
        <ele>1247.0</ele>
      </trkpt>
      <trkpt lat="45.921254" lon="9.029505">
        <time>1970-01-01T00:00:00+00:00</time>
        <ele>1255.0</ele>
      </trkpt>
      <trkpt lat="45.921283" lon="9.029542">
        <time>1970-01-01T00:00:00+00:00</time>
        <ele>1252.0</ele>
      </trkpt>
      <trkpt lat="45.921367" lon="9.029509">
        <time>1970-01-01T00:00:00+00:00</time>
        <ele>1257.0</ele>
      </trkpt>
      <trkpt lat="45.921414" lon="9.029529">
        <time>1970-01-01T00:00:00+00:00</time>
        <ele>1256.0</ele>
      </trkpt>
      <trkpt lat="45.921567" lon="9.029386">
        <time>1970-01-01T00:00:00+00:00</time>
        <ele>1269.0</ele>
      </trkpt>
      <trkpt lat="45.921649" lon="9.029391">
        <time>1970-01-01T00:00:00+00:00</time>
        <ele>1271.0</ele>
      </trkpt>
      <trkpt lat="45.921719" lon="9.029281">
        <time>1970-01-01T00:00:00+00:00</time>
        <ele>1280.0</ele>
      </trkpt>
      <trkpt lat="45.921748" lon="9.029322">
        <time>1970-01-01T00:00:00+00:00</time>
        <ele>1280.0</ele>
      </trkpt>
      <trkpt lat="45.921869" lon="9.029224">
        <time>1970-01-01T00:00:00+00:00</time>
        <ele>1291.0</ele>
      </trkpt>
      <trkpt lat="45.921882" lon="9.029253">
        <time>1970-01-01T00:00:00+00:00</time>
        <ele>1291.0</ele>
      </trkpt>
      <trkpt lat="45.921879" lon="9.029322">
        <time>1970-01-01T00:00:00+00:00</time>
        <ele>1287.0</ele>
      </trkpt>
      <trkpt lat="45.921917" lon="9.02942">
        <time>1970-01-01T00:00:00+00:00</time>
        <ele>1284.0</ele>
      </trkpt>
      <trkpt lat="45.921945" lon="9.029559">
        <time>1970-01-01T00:00:00+00:00</time>
        <ele>1272.0</ele>
      </trkpt>
      <trkpt lat="45.922003" lon="9.029681">
        <time>1970-01-01T00:00:00+00:00</time>
        <ele>1262.0</ele>
      </trkpt>
      <trkpt lat="45.922015" lon="9.02976">
        <time>1970-01-01T00:00:00+00:00</time>
        <ele>1254.0</ele>
      </trkpt>
      <trkpt lat="45.922058" lon="9.029771">
        <time>1970-01-01T00:00:00+00:00</time>
        <ele>1255.0</ele>
      </trkpt>
      <trkpt lat="45.922262" lon="9.029661">
        <time>1970-01-01T00:00:00+00:00</time>
        <ele>1276.0</ele>
      </trkpt>
      <trkpt lat="45.922569" lon="9.029654">
        <time>1970-01-01T00:00:00+00:00</time>
        <ele>1295.0</ele>
      </trkpt>
      <trkpt lat="45.922622" lon="9.029621">
        <time>1970-01-01T00:00:00+00:00</time>
        <ele>1301.0</ele>
      </trkpt>
      <trkpt lat="45.922832" lon="9.029571">
        <time>1970-01-01T00:00:00+00:00</time>
        <ele>1316.0</ele>
      </trkpt>
      <trkpt lat="45.922919" lon="9.02952">
        <time>1970-01-01T00:00:00+00:00</time>
        <ele>1324.0</ele>
      </trkpt>
      <trkpt lat="45.923242" lon="9.029469">
        <time>1970-01-01T00:00:00+00:00</time>
        <ele>1342.0</ele>
      </trkpt>
      <trkpt lat="45.923575" lon="9.029374">
        <time>1970-01-01T00:00:00+00:00</time>
        <ele>1359.0</ele>
      </trkpt>
      <trkpt lat="45.924023" lon="9.029166">
        <time>1970-01-01T00:00:00+00:00</time>
        <ele>1385.0</ele>
      </trkpt>
      <trkpt lat="45.924177" lon="9.029244">
        <time>1970-01-01T00:00:00+00:00</time>
        <ele>1390.0</ele>
      </trkpt>
      <trkpt lat="45.924339" lon="9.029287">
        <time>1970-01-01T00:00:00+00:00</time>
        <ele>1394.0</ele>
      </trkpt>
      <trkpt lat="45.924595" lon="9.029424">
        <time>1970-01-01T00:00:00+00:00</time>
        <ele>1400.0</ele>
      </trkpt>
      <trkpt lat="45.924568" lon="9.029669">
        <time>1970-01-01T00:00:00+00:00</time>
        <ele>1390.0</ele>
      </trkpt>
      <trkpt lat="45.924624" lon="9.029816">
        <time>1970-01-01T00:00:00+00:00</time>
        <ele>1386.0</ele>
      </trkpt>
      <trkpt lat="45.92484" lon="9.030141">
        <time>1970-01-01T00:00:00+00:00</time>
        <ele>1384.0</ele>
      </trkpt>
      <trkpt lat="45.925232" lon="9.030785">
        <time>1970-01-01T00:00:00+00:00</time>
        <ele>1378.0</ele>
      </trkpt>
      <trkpt lat="45.925232" lon="9.030785">
        <time>1970-01-01T00:00:00+00:00</time>
        <ele>1378.0</ele>
      </trkpt>
      <trkpt lat="45.92484" lon="9.030141">
        <time>1970-01-01T00:00:00+00:00</time>
        <ele>1384.0</ele>
      </trkpt>
      <trkpt lat="45.924624" lon="9.029816">
        <time>1970-01-01T00:00:00+00:00</time>
        <ele>1386.0</ele>
      </trkpt>
      <trkpt lat="45.924568" lon="9.029669">
        <time>1970-01-01T00:00:00+00:00</time>
        <ele>1390.0</ele>
      </trkpt>
      <trkpt lat="45.924595" lon="9.029424">
        <time>1970-01-01T00:00:00+00:00</time>
        <ele>1400.0</ele>
      </trkpt>
      <trkpt lat="45.924339" lon="9.029287">
        <time>1970-01-01T00:00:00+00:00</time>
        <ele>1394.0</ele>
      </trkpt>
      <trkpt lat="45.924177" lon="9.029244">
        <time>1970-01-01T00:00:00+00:00</time>
        <ele>1390.0</ele>
      </trkpt>
      <trkpt lat="45.924023" lon="9.029166">
        <time>1970-01-01T00:00:00+00:00</time>
        <ele>1385.0</ele>
      </trkpt>
      <trkpt lat="45.923575" lon="9.029374">
        <time>1970-01-01T00:00:00+00:00</time>
        <ele>1359.0</ele>
      </trkpt>
      <trkpt lat="45.923242" lon="9.029469">
        <time>1970-01-01T00:00:00+00:00</time>
        <ele>1342.0</ele>
      </trkpt>
      <trkpt lat="45.922919" lon="9.02952">
        <time>1970-01-01T00:00:00+00:00</time>
        <ele>1324.0</ele>
      </trkpt>
      <trkpt lat="45.922832" lon="9.029571">
        <time>1970-01-01T00:00:00+00:00</time>
        <ele>1316.0</ele>
      </trkpt>
      <trkpt lat="45.922622" lon="9.029621">
        <time>1970-01-01T00:00:00+00:00</time>
        <ele>1301.0</ele>
      </trkpt>
      <trkpt lat="45.922569" lon="9.029654">
        <time>1970-01-01T00:00:00+00:00</time>
        <ele>1295.0</ele>
      </trkpt>
      <trkpt lat="45.922262" lon="9.029661">
        <time>1970-01-01T00:00:00+00:00</time>
        <ele>1276.0</ele>
      </trkpt>
      <trkpt lat="45.922058" lon="9.029771">
        <time>1970-01-01T00:00:00+00:00</time>
        <ele>1255.0</ele>
      </trkpt>
      <trkpt lat="45.922015" lon="9.02976">
        <time>1970-01-01T00:00:00+00:00</time>
        <ele>1254.0</ele>
      </trkpt>
      <trkpt lat="45.922003" lon="9.029681">
        <time>1970-01-01T00:00:00+00:00</time>
        <ele>1262.0</ele>
      </trkpt>
      <trkpt lat="45.921945" lon="9.029559">
        <time>1970-01-01T00:00:00+00:00</time>
        <ele>1272.0</ele>
      </trkpt>
      <trkpt lat="45.921917" lon="9.02942">
        <time>1970-01-01T00:00:00+00:00</time>
        <ele>1284.0</ele>
      </trkpt>
      <trkpt lat="45.921879" lon="9.029322">
        <time>1970-01-01T00:00:00+00:00</time>
        <ele>1287.0</ele>
      </trkpt>
      <trkpt lat="45.921882" lon="9.029253">
        <time>1970-01-01T00:00:00+00:00</time>
        <ele>1291.0</ele>
      </trkpt>
      <trkpt lat="45.921869" lon="9.029224">
        <time>1970-01-01T00:00:00+00:00</time>
        <ele>1291.0</ele>
      </trkpt>
      <trkpt lat="45.921748" lon="9.029322">
        <time>1970-01-01T00:00:00+00:00</time>
        <ele>1280.0</ele>
      </trkpt>
      <trkpt lat="45.921719" lon="9.029281">
        <time>1970-01-01T00:00:00+00:00</time>
        <ele>1280.0</ele>
      </trkpt>
      <trkpt lat="45.921649" lon="9.029391">
        <time>1970-01-01T00:00:00+00:00</time>
        <ele>1271.0</ele>
      </trkpt>
      <trkpt lat="45.921567" lon="9.029386">
        <time>1970-01-01T00:00:00+00:00</time>
        <ele>1269.0</ele>
      </trkpt>
      <trkpt lat="45.921414" lon="9.029529">
        <time>1970-01-01T00:00:00+00:00</time>
        <ele>1256.0</ele>
      </trkpt>
      <trkpt lat="45.921367" lon="9.029509">
        <time>1970-01-01T00:00:00+00:00</time>
        <ele>1257.0</ele>
      </trkpt>
      <trkpt lat="45.921283" lon="9.029542">
        <time>1970-01-01T00:00:00+00:00</time>
        <ele>1252.0</ele>
      </trkpt>
      <trkpt lat="45.921254" lon="9.029505">
        <time>1970-01-01T00:00:00+00:00</time>
        <ele>1255.0</ele>
      </trkpt>
      <trkpt lat="45.921188" lon="9.02958">
        <time>1970-01-01T00:00:00+00:00</time>
        <ele>1247.0</ele>
      </trkpt>
      <trkpt lat="45.920543" lon="9.02994">
        <time>1970-01-01T00:00:00+00:00</time>
        <ele>1208.0</ele>
      </trkpt>
      <trkpt lat="45.920311" lon="9.029952">
        <time>1970-01-01T00:00:00+00:00</time>
        <ele>1206.0</ele>
      </trkpt>
      <trkpt lat="45.920236" lon="9.03002">
        <time>1970-01-01T00:00:00+00:00</time>
        <ele>1200.0</ele>
      </trkpt>
      <trkpt lat="45.919823" lon="9.030127">
        <time>1970-01-01T00:00:00+00:00</time>
        <ele>1181.0</ele>
      </trkpt>
      <trkpt lat="45.919743" lon="9.03006">
        <time>1970-01-01T00:00:00+00:00</time>
        <ele>1181.0</ele>
      </trkpt>
      <trkpt lat="45.919504" lon="9.029999">
        <time>1970-01-01T00:00:00+00:00</time>
        <ele>1170.0</ele>
      </trkpt>
      <trkpt lat="45.919188" lon="9.030169">
        <time>1970-01-01T00:00:00+00:00</time>
        <ele>1156.0</ele>
      </trkpt>
      <trkpt lat="45.918919" lon="9.030425">
        <time>1970-01-01T00:00:00+00:00</time>
        <ele>1145.0</ele>
      </trkpt>
      <trkpt lat="45.918752" lon="9.030404">
        <time>1970-01-01T00:00:00+00:00</time>
        <ele>1142.0</ele>
      </trkpt>
      <trkpt lat="45.918573" lon="9.030477">
        <time>1970-01-01T00:00:00+00:00</time>
        <ele>1132.0</ele>
      </trkpt>
      <trkpt lat="45.918334" lon="9.030459">
        <time>1970-01-01T00:00:00+00:00</time>
        <ele>1117.0</ele>
      </trkpt>
      <trkpt lat="45.918175" lon="9.030464">
        <time>1970-01-01T00:00:00+00:00</time>
        <ele>1107.0</ele>
      </trkpt>
      <trkpt lat="45.917944" lon="9.030385">
        <time>1970-01-01T00:00:00+00:00</time>
        <ele>1097.0</ele>
      </trkpt>
      <trkpt lat="45.917865" lon="9.030445">
        <time>1970-01-01T00:00:00+00:00</time>
        <ele>1092.0</ele>
      </trkpt>
      <trkpt lat="45.917763" lon="9.030427">
        <time>1970-01-01T00:00:00+00:00</time>
        <ele>1089.0</ele>
      </trkpt>
      <trkpt lat="45.917717" lon="9.030457">
        <time>1970-01-01T00:00:00+00:00</time>
        <ele>1087.0</ele>
      </trkpt>
      <trkpt lat="45.917476" lon="9.030519">
        <time>1970-01-01T00:00:00+00:00</time>
        <ele>1078.0</ele>
      </trkpt>
      <trkpt lat="45.917126" lon="9.030698">
        <time>1970-01-01T00:00:00+00:00</time>
        <ele>1063.0</ele>
      </trkpt>
      <trkpt lat="45.917045" lon="9.030769">
        <time>1970-01-01T00:00:00+00:00</time>
        <ele>1058.0</ele>
      </trkpt>
      <trkpt lat="45.916864" lon="9.030851">
        <time>1970-01-01T00:00:00+00:00</time>
        <ele>1051.0</ele>
      </trkpt>
      <trkpt lat="45.916777" lon="9.030939">
        <time>1970-01-01T00:00:00+00:00</time>
        <ele>1046.0</ele>
      </trkpt>
      <trkpt lat="45.916639" lon="9.031012">
        <time>1970-01-01T00:00:00+00:00</time>
        <ele>1043.0</ele>
      </trkpt>
      <trkpt lat="45.916426" lon="9.031078">
        <time>1970-01-01T00:00:00+00:00</time>
        <ele>1037.0</ele>
      </trkpt>
      <trkpt lat="45.916272" lon="9.031184">
        <time>1970-01-01T00:00:00+00:00</time>
        <ele>1031.0</ele>
      </trkpt>
      <trkpt lat="45.916167" lon="9.031171">
        <time>1970-01-01T00:00:00+00:00</time>
        <ele>1032.0</ele>
      </trkpt>
      <trkpt lat="45.91542" lon="9.031343">
        <time>1970-01-01T00:00:00+00:00</time>
        <ele>1031.0</ele>
      </trkpt>
      <trkpt lat="45.915234" lon="9.031455">
        <time>1970-01-01T00:00:00+00:00</time>
        <ele>1018.0</ele>
      </trkpt>
      <trkpt lat="45.915155" lon="9.03146">
        <time>1970-01-01T00:00:00+00:00</time>
        <ele>1014.0</ele>
      </trkpt>
      <trkpt lat="45.914873" lon="9.031414">
        <time>1970-01-01T00:00:00+00:00</time>
        <ele>1009.0</ele>
      </trkpt>
      <trkpt lat="45.914728" lon="9.031434">
        <time>1970-01-01T00:00:00+00:00</time>
        <ele>1005.0</ele>
      </trkpt>
      <trkpt lat="45.914681" lon="9.0315">
        <time>1970-01-01T00:00:00+00:00</time>
        <ele>1002.0</ele>
      </trkpt>
      <trkpt lat="45.914645" lon="9.031596">
        <time>1970-01-01T00:00:00+00:00</time>
        <ele>997.0</ele>
      </trkpt>
      <trkpt lat="45.914712" lon="9.031834">
        <time>1970-01-01T00:00:00+00:00</time>
        <ele>989.0</ele>
      </trkpt>
      <trkpt lat="45.91471" lon="9.031917">
        <time>1970-01-01T00:00:00+00:00</time>
        <ele>986.0</ele>
      </trkpt>
      <trkpt lat="45.91465" lon="9.032243">
        <time>1970-01-01T00:00:00+00:00</time>
        <ele>973.0</ele>
      </trkpt>
      <trkpt lat="45.914694" lon="9.032387">
        <time>1970-01-01T00:00:00+00:00</time>
        <ele>969.0</ele>
      </trkpt>
      <trkpt lat="45.914756" lon="9.032481">
        <time>1970-01-01T00:00:00+00:00</time>
        <ele>968.0</ele>
      </trkpt>
      <trkpt lat="45.914686" lon="9.032602">
        <time>1970-01-01T00:00:00+00:00</time>
        <ele>963.0</ele>
      </trkpt>
      <trkpt lat="45.914777" lon="9.032683">
        <time>1970-01-01T00:00:00+00:00</time>
        <ele>964.0</ele>
      </trkpt>
      <trkpt lat="45.914859" lon="9.032823">
        <time>1970-01-01T00:00:00+00:00</time>
        <ele>959.0</ele>
      </trkpt>
      <trkpt lat="45.914911" lon="9.032919">
        <time>1970-01-01T00:00:00+00:00</time>
        <ele>955.0</ele>
      </trkpt>
      <trkpt lat="45.914991" lon="9.032963">
        <time>1970-01-01T00:00:00+00:00</time>
        <ele>953.0</ele>
      </trkpt>
      <trkpt lat="45.915063" lon="9.03296">
        <time>1970-01-01T00:00:00+00:00</time>
        <ele>954.0</ele>
      </trkpt>
      <trkpt lat="45.91512" lon="9.032945">
        <time>1970-01-01T00:00:00+00:00</time>
        <ele>956.0</ele>
      </trkpt>
      <trkpt lat="45.915661" lon="9.032778">
        <time>1970-01-01T00:00:00+00:00</time>
        <ele>957.0</ele>
      </trkpt>
      <trkpt lat="45.915902" lon="9.032756">
        <time>1970-01-01T00:00:00+00:00</time>
        <ele>952.0</ele>
      </trkpt>
      <trkpt lat="45.916216" lon="9.032811">
        <time>1970-01-01T00:00:00+00:00</time>
        <ele>943.0</ele>
      </trkpt>
      <trkpt lat="45.916479" lon="9.032908">
        <time>1970-01-01T00:00:00+00:00</time>
        <ele>944.0</ele>
      </trkpt>
      <trkpt lat="45.916749" lon="9.033058">
        <time>1970-01-01T00:00:00+00:00</time>
        <ele>945.0</ele>
      </trkpt>
      <trkpt lat="45.916798" lon="9.033234">
        <time>1970-01-01T00:00:00+00:00</time>
        <ele>941.0</ele>
      </trkpt>
      <trkpt lat="45.916804" lon="9.033275">
        <time>1970-01-01T00:00:00+00:00</time>
        <ele>941.0</ele>
      </trkpt>
    </trkseg>
  </trk>
</gpx>
